Weather in Kuvandik

Russia / Orenburg Oblast     51°28′42″N   57°21′40″E
temp.,
°C
wind,
m/s
gust,
m/s
humid.,
%
clouds,
%
prec.,
mm/h
press.,
hPa
HPBL,
m
27 july, tue
tue2723:00+15n33430 0.0 101926
02:00+12nnw33520 0.0 101923
05:00+11nne33641 0.0 101935
08:00+17ne36430 0.0 1019337
11:00+23nne34250 0.0 10172165
14:00+24n24242 0.0 10162657
17:00+26nw342114 0.0 10142991
20:00+22nnw48338 0.0 1014280
28 july, wed
wed2823:00+16ne22490 0.0 101511
02:00+14ssw00524 0.0 101410
05:00+14wnw11545 0.0 101410
08:00+19wnw23465 0.0 1013231
11:00+24wnw464111 0.0 10121771
14:00+24wnw57336 0.1 10112071
17:00+26nw572418 0.1 10103113
20:00+23nnw59314 0.0 1011448
29 july, thu
thu2923:00+15nne35460 0.0 101365
02:00+12ne22540 0.0 101514
05:00+11ne22570 0.0 101512
08:00+16nne22430 0.0 1016198
11:00+21nnw33295 0.0 10151638
14:00+25wnw332239 0.0 10142214
17:00+26w3419100 0.0 10132566
20:00+23sw3326100 0.0 101231
30 july, fri
fri3023:00+20sse3529100 0.0 101282
02:00+17ese2251100 0.3 101116
05:00+20s3732100 0.3 1010206
08:00+18s31457100 0.3 1010530
11:00+28wsw8112897 0.3 10081712
14:00+30w91334100 0.0 10073066
17:00+28wnw7114051 0.2 10072146
20:00+28wnw483490 0.0 1007293
31 july, sat
sat3123:00+22nne225467 0.0 100924
02:00+19nne1165100 0.0 101011
05:00+19ene1166100 0.0 101011
08:00+21ssw115764 0.0 1012109
11:00+28ssw11405 0.0 10111154
14:00+31wsw233486 0.0 10102587
17:00+30nne2238100 0.3 1010576
20:00+25ese365838 0.6 1010120